Location: Pedimozza
(42.0500°N, 9.3500°E)
Time: 15:05:22
(UTC+00:00)

SJ 16-02 - Pass Details

Date: 19 August 2019
Orbit: 606 x 617 km, 75.0° (Epoch: 23 October)

Event Time Altitude Azimuth Distance (km) Brightness Sun altitude
Exits shadow 20:30:54 32° 59° (ENE) 1,064 2.4 -22.1°
Drops below altitude 10° 20:33:40 10° 32° (NNE) 1,979 4.1 -22.5°
Sets 20:36:00 0° 26° (NNE) 2,890 5.0 -22.8°
